Jerez De La Frontera, Spain

9:59 AM CEST on July 30, 2016 (GMT +0200)
Jerez

Weather History for LEJR - December, 2013

Change the Weather History Date:

Thursday, December 12, 2013

  Actual Average Record
Temperature  
Mean Temperature 56 °F -  
Max Temperature 66 °F 60 °F 73 °F (1998)
Min Temperature 47 °F 42 °F 33 °F (2007)
Degree Days  
Heating Degree Days 8    
Growing Degree Days 6 (Base 50)    
Moisture  
Dew Point 42 °F    
Average Humidity 56    
Maximum Humidity 76    
Minimum Humidity 28    
Precipitation  
Precipitation 0.00 in 0.14 in - ()
Sea Level Pressure  
Sea Level Pressure 30.35 in    
Wind  
Wind Speed 2 mph ()    
Max Wind Speed 8 mph    
Max Gust Speed -    
Visibility 15.7 miles    
Events      
Averages and records for this station are not official NWS values.
T = Trace of Precipitation, MM = Missing Value Source: Averaged Metar Reports

Daily Weather History Graph

Daily Weather History Graph

Search for Another Location

Airport or City:

Trip Planner

Search our weather history database for the weather conditions in past years. The results will help you decide how hot, cold, wet, or windy it might be!

Date:

Astronomy

Dec. 12, 2013 Rise Set
Actual Time 8:27 AM CET 6:08 PM CET
Civil Twilight 7:58 AM CET 6:37 PM CET
Nautical Twilight 7:26 AM CET 7:09 PM CET
Astronomical Twilight 6:54 AM CET 7:41 PM CET
Moon 3:02 PM CET (12/12) 3:41 AM CET (12/12)
Length of Visible Light 10h 38m
Length of Day
9h 41m
Waxing Gibbous, 78% of the Moon is Illuminated
Dec 12
Waxing Gibbous
Dec 17
Full
Dec 25
Last Quarter
Jan 1
New
Jan 8
First Quarter

Hourly Weather History & Observations

Time (CET) Temp. Dew Point Humidity Pressure Visibility Wind Dir Wind Speed Gust Speed Precip Events Conditions
12:00 AM 49 °F 38 °F 57% 30.38 in - Calm Calm - -  
1:00 AM 48 °F 38 °F 60% 30.37 in 19 mi Calm Calm - -   Scattered Clouds
2:00 AM 49 °F 42 °F 69% 30.36 in - NE 2.3 mph - -  
3:00 AM 52 °F 43 °F 61% 30.36 in - Calm Calm - -  
4:30 AM 53.6 °F 42.8 °F 67% 30.33 in - Calm Calm - N/A   Clear
5:00 AM 52 °F 43 °F 63% 30.35 in - NW 2.3 mph - -  
5:00 AM 51.8 °F 42.8 °F 71% 30.33 in - Calm Calm - N/A   Clear
5:30 AM 50.0 °F 41.0 °F 71% 30.33 in - NW 6.9 mph - N/A   Clear
6:00 AM 50 °F 41 °F 62% 30.35 in - North 4.6 mph - -  
6:00 AM 50.0 °F 41.0 °F 71% 30.33 in - North 3.5 mph - N/A   Clear
6:30 AM 48.2 °F 41.0 °F 76% 30.33 in - Calm Calm - N/A   Clear
7:00 AM 49 °F 40 °F 64% 30.35 in 16 mi Calm Calm - -   Clear
7:00 AM 50.0 °F 41.0 °F 71% 30.33 in - Calm Calm - N/A   Clear
7:30 AM 48.2 °F 41.0 °F 76% 30.33 in - Variable 1.2 mph - N/A   Clear
8:00 AM 47 °F 40 °F 69% 30.36 in - Calm Calm - -  
8:00 AM 48.2 °F 41.0 °F 76% 30.33 in - Calm Calm - N/A   Clear
8:30 AM 48.2 °F 41.0 °F 76% 30.36 in - Calm Calm - N/A   Clear
9:00 AM 48 °F 41 °F 69% 30.38 in - Calm Calm - -  
9:00 AM 48.2 °F 41.0 °F 76% 30.36 in - Calm Calm - N/A   Clear
9:30 AM 50.0 °F 41.0 °F 71% 30.36 in - Calm Calm - N/A   Clear
10:00 AM 51.8 °F 41.0 °F 67% 30.36 in - NNE 3.5 mph - N/A   Clear
10:30 AM 55.4 °F 41.0 °F 58% 30.36 in - NNW 3.5 mph - N/A   Clear
11:00 AM 61 °F 43 °F 39% 30.39 in - NNW 2.3 mph - -  
11:00 AM 59.0 °F 42.8 °F 55% 30.36 in - Variable 2.3 mph - N/A   Clear
11:30 AM 62.6 °F 44.6 °F 52% 30.39 in - Calm Calm - N/A   Clear
12:00 PM 64 °F 44 °F 37% 30.40 in - WNW 6.9 mph - -  
12:00 PM 62.6 °F 44.6 °F 52% 30.39 in - Variable 2.3 mph - N/A   Clear
12:30 PM 62.6 °F 44.6 °F 52% 30.36 in - NW 3.5 mph - N/A   Clear
1:00 PM 64 °F 43 °F 35% 30.37 in 31 mi NW 4.6 mph - -   Clear
1:00 PM 62.6 °F 42.8 °F 48% 30.36 in - NW 3.5 mph - N/A   Clear
1:30 PM 62.6 °F 42.8 °F 48% 30.36 in - Variable 1.2 mph - N/A   Clear
2:00 PM 64 °F 43 °F 34% 30.35 in - North 3.5 mph - -  
2:00 PM 62.6 °F 42.8 °F 48% 30.33 in - North 3.5 mph - N/A   Clear
2:30 PM 64.4 °F 41.0 °F 42% 30.33 in - North 3.5 mph - N/A   Clear
3:00 PM 65 °F 40 °F 28% 30.33 in - North 4.6 mph - -  
3:00 PM 64.4 °F 41.0 °F 42% 30.33 in - North 3.5 mph - N/A   Clear
3:30 PM 66.2 °F 39.2 °F 37% 30.30 in - North 3.5 mph - N/A   Clear
4:00 PM 64.4 °F 41.0 °F 42% 30.30 in - North 5.8 mph - N/A   Clear
4:30 PM 64.4 °F 42.8 °F 45% 30.33 in - NNW 6.9 mph - N/A   Clear
5:00 PM 64 °F 41 °F 31% 30.33 in - NNW 8.1 mph - -  
5:00 PM 64.4 °F 42.8 °F 45% 30.33 in - NNW 6.9 mph - N/A   Clear
5:30 PM 62.6 °F 41.0 °F 45% 30.33 in - North 6.9 mph - N/A   Clear
6:00 PM 61 °F 41 °F 36% 30.32 in - North 4.6 mph - -  
6:00 PM 60.8 °F 41.0 °F 48% 30.30 in - North 3.5 mph - N/A   Clear
6:30 PM 59.0 °F 42.8 °F 55% 30.30 in - North 3.5 mph - N/A   Clear
7:00 PM 59 °F 42 °F 41% 30.33 in 12 mi North 2.3 mph - -   Scattered Clouds
7:00 PM 59.0 °F 41.0 °F 51% 30.30 in - Variable 1.2 mph - N/A   Clear
7:30 PM 57.2 °F 41.0 °F 55% 30.33 in - Calm Calm - N/A   Clear
8:00 PM 58 °F 42 °F 45% 30.35 in - WSW 1.2 mph - -  
8:00 PM 59.0 °F 42.8 °F 55% 30.33 in - Calm Calm - N/A   Clear
8:30 PM 57.2 °F 42.8 °F 59% 30.33 in - Variable 2.3 mph - N/A   Clear
9:00 PM 56 °F 43 °F 50% 30.36 in - Calm Calm - -  
9:00 PM 57.2 °F 42.8 °F 59% 30.36 in - Calm Calm - N/A   Clear
9:30 PM 55.4 °F 42.8 °F 63% 30.36 in - Variable 1.2 mph - N/A   Clear
10:00 PM 55.4 °F 42.8 °F 63% 30.36 in - Calm Calm - N/A   Clear
10:30 PM 53.6 °F 42.8 °F 67% 30.36 in - Variable 1.2 mph - N/A   Clear
11:00 PM 53 °F 42 °F 56% 30.38 in - Calm Calm - -  
11:00 PM 53.6 °F 41.0 °F 62% 30.36 in - Calm Calm - N/A   Clear